STARLINK-11594, 64320

Orbit data source: Space-Track

STARLINK-11594, 64320 is a payload satellite owned by SpaceX/Seattle (US) in LEO that was launched on Tue, 10 Jun 2025 UTC via an FALCON 9 launch vehicle from the Air Force Eastern Test Range (AFETR). Payload-class satellites include a variety of spacecraft equipped with specific instruments for various scientific and technological missions. These include communications satellites like Starlink; space stations such as the ISS; scientific satellites like the Hubble; Earth observation satellites from companies like Planet Labs, Umbra, and HawkEye 360; GPS; miniature CubeSats for education and research; and military/defense satellites.

Loading next visibility...
Identifier
64320, 2025-124D
Orbit
LEO
Country
Flag of USUS
Related business
Manufacturer
SpaceX/Seattle
Mission
Operational Commercial Communications
Bus & Motor
STARLINK V2MD, Unknown motor
Mass
960 kg wet, ~910 kg dry
Launch date (UTC)
2025-06-10 (11 months ago)
Launch vehicle
FALCON 9
Launch site
Air Force Eastern Test Range (AFETR)
Object type
Payload
Rocket body
Debris
Shape & HBR
Box + 2 Pan, 18.1 m
Radar Cross Section
36.964 m², Large (>1 m²)

Expand to show TLE details & history
Last TLE update: 9 hours ago

TLE from 9 hours ago
0 STARLINK-11594
1 64320U 25124D   26119.89563364  .00182657  00000-0  13890-2 0  9994
2 64320  42.9950  80.9300 0000390 168.7281 191.3595 15.70957729 50887
Epoch: 2026-04-29T21:29Z
TLE epoch observation values (Epoch: 2026-04-29T21:29:42.746Z)
Latitude
-0.00005°
Longitude
-99.34818°
Altitude
356.187 km
Speed
7.697 km/s
True Right ascension
05h 23m 43s
True Declination
0° 00' 00"
Sunlit
Object was in daylight at epoch
Visualization orbit readout
Latitude
Unknown
Longitude
Unknown
Altitude
Unknown
Speed
Unknown
Apparent Right ascension
Unknown
Apparent Declination
Unknown
Sunlit
N/A
Visualization observer readout
Local Sidereal Time
13:38:12
Azimuth
Unknown
Elevation
Unknown
Doppler factor
Unknown
Orbital elements
Apogee altitude
358.404 km
Perigee altitude
357.878 km
Semi-major axis
6,736.278 km
Eccentricity
0.00004
Inclination
42.995°
RAAN
80.93°
Arg. of periapsis
168.7281°
True anomaly
191.35862°
Mean anomaly
191.3595°
Eccentric anomaly
191.35906°
Mean motion
3.92566 °/min
Orbital period
91.7 mins
BSTAR
0.001389
Loading maneuver chart data...
Computing Atmospheric mass density...
Loading historical data...
Loading historical data...
Loading historical data...
Loading historical data...
Loading historical data...
Loading historical data...
Loading historical data...

Documentation

Showing up to 5 results
|